{"data":{"norad_id":66003,"intl_designator":"2025-231J","name":"HULIANWANG DIGUI-95","alt_names":[],"object_type":"PAYLOAD","status":"ACTIVE","operator":null,"country":"PRC","launch_date":"2025-10-16","launch_site_code":"WSC","launch_vehicle":null,"mission":null,"orbit_class":"UNKNOWN","rcs_meters":null,"size_class":null,"mass_kg":null,"dimensions":null,"purposes":[],"wikipedia_slug":null,"has_3d_model":false,"image_url":null,"decayed_at":null,"tle_current":{"epoch":"2026-05-25T00:38:33.654624Z","epoch_age_seconds":69566,"freshness":"FRESH","line1":"1 66003U 25231J   26145.02677841 -.00000106  00000+0  38231-4 0  9999","line2":"2 66003  50.0035 258.4653 0000879 150.3370 209.7552 13.29331666 29816","mean_motion":13.29331666,"eccentricity":8.79e-5,"inclination_deg":50.0035,"raan_deg":258.4653,"arg_perigee_deg":150.337,"mean_anomaly_deg":209.7552,"bstar":3.8231e-5,"rev_number":2981,"period_min":108.32511079293,"perigee_km":1148.623521986,"apogee_km":1149.9468428057,"semimajor_km":7527.4221823959,"source":"CELESTRAK","updated_at":"2026-05-25T13:38:05.885408Z"}}}